x

East Bahamas - 335 Nm East Of San Salvador Is, Bahamas (41046) Weather Station

4:20pm - Sun 22nd Jan 2017 All times are UTC.

  • Wind
    16mph, 18mph gusts
  • Sea Temp 78°f
  • Air Temp 76°f
  • Sea Pressure 1015mb

More Historic Weather Station data

Upgrade to MSW Pro to gain access to the past 30 days of data for over 8000 Wavebouys and Weather Stations around the globe.

Join Pro

Comparision Forecast

View Surf forecast
   
Sun 01/22 4:20pm  -   -   -  16 18 mph 1015mb 78f 76f
4:10pm  -   -   -  13 18 mph 1015.3mb 78f 76f
4:00pm  -   -   -  13 18 mph 1015.3mb 78f 76f
3:50pm 4.5ft 10s 6s 13 18 mph 1015.5mb 78f 76f
3:40pm 4.5ft  -  6s 13 18 mph 1015.5mb 78f 76f
3:30pm  -   -   -  16 18 mph 1015.5mb 78f 76f
3:20pm  -   -   -  13 18 mph 1015.5mb 78f 76f
3:10pm  -   -   -  16 18 mph 1015.5mb 78f 75f
3:00pm  -   -   -  16 20 mph 1015.5mb 78f 75f
2:50pm 4ft 10s 6s 16 20 mph 1015.5mb 78f 75f
2:40pm 4ft  -  6s 16 20 mph 1015.5mb 78f 75f
2:30pm  -   -   -  16 20 mph 1015.5mb - 75f
2:20pm  -   -   -  16 20 mph 1015.5mb 78f 75f
2:10pm  -   -   -  16 20 mph 1015.5mb 78f 75f
2:00pm  -   -   -  13 18 mph 1015.5mb 78f 75f
1:50pm 4ft 10s 7s 13 16 mph 1015.5mb 78f 75f
1:40pm 4ft  -  7s 13 16 mph 1015.5mb 78f 75f
1:30pm  -   -   -  13 16 mph 1015.5mb 78f 75f
1:20pm  -   -   -  11 16 mph 1015.4mb 78f 75f
1:10pm  -   -   -  11 16 mph 1015.4mb 78f 75f
1:00pm  -   -   -  11 16 mph 1015.4mb 78f 75f
12:50pm 4ft 10s 7s 11 16 mph 1015.3mb - 75f
12:40pm 4ft  -  7s 11 13 mph 1015.4mb 78f 74f
12:30pm  -   -   -  11 13 mph 1015.4mb 78f 74f
12:20pm  -   -   -  11 16 mph 1015.3mb 78f 74f
12:10pm  -   -   -  11 13 mph 1015mb 78f 74f
12:00pm  -   -   -  11 13 mph 1014.9mb 78f 74f
11:50am 3.5ft 9s 8s 11 13 mph 1014.9mb 78f 74f
11:40am 3.5ft  -  8s 11 13 mph 1014.5mb 78f 74f
11:30am  -   -   -  11 13 mph 1014.5mb 78f 74f
11:20am  -   -   -  9 13 mph 1014.6mb 78f 74f
11:10am  -   -   -  9 13 mph 1014.6mb 78f 74f
11:00am  -   -   -  9 11 mph 1014.5mb 78f 74f
10:50am 3.5ft 10s 8s 9 11 mph 1014.5mb 78f 74f
10:40am 3.5ft  -  8s 9 11 mph 1014.5mb 78f 74f
10:30am  -   -   -  7 11 mph 1014.5mb - 74f
10:20am  -   -   -  7 11 mph 1014.5mb 78f 74f
10:10am  -   -   -  4 7 mph 1014.9mb 78f 74f
10:00am  -   -   -  7 9 mph 1014.8mb 78f 74f
9:50am 4ft 10s 9s 4 9 mph 1014.6mb 78f 74f
9:40am 4ft  -  9s 4 7 mph 1014.6mb 78f 74f
9:30am  -   -   -  4 9 mph 1014.5mb 78f 74f
9:20am  -   -   -  4 7 mph 1014.5mb 78f 74f
9:10am  -   -   -  4 7 mph 1014.6mb 78f 74f
9:00am  -   -   -  4 7 mph 1014.5mb 78f 74f
8:50am 4ft 11s 9s 4 7 mph 1014.5mb 78f 74f
8:40am 4ft  -  9s 4 7 mph 1014.5mb 78f 74f
8:30am  -   -   -  4 7 mph 1014.5mb 78f 74f
8:20am  -   -   -  4 7 mph 1014.5mb 78f 74f
8:10am  -   -   -  4 7 mph 1014.5mb 78f 74f
8:00am  -   -   -  4 7 mph 1014.5mb 78f 74f
7:50am 4ft 9s 8s 4 9 mph 1014.5mb 78f 74f
7:40am 4ft  -  8s 7 9 mph 1014.4mb 78f 74f
7:30am  -   -   -  4 7 mph 1014.5mb 78f 74f
7:20am  -   -   -  4 9 mph 1014.5mb 78f 74f
7:10am  -   -   -  4 7 mph 1014.6mb 78f 74f
7:00am  -   -   -  4 7 mph 1014.8mb 78f 74f
6:50am 4.5ft 11s 9s 2 4 mph 1015mb 78f 74f
6:40am 4.5ft  -  9s 4 7 mph 1015mb 78f 74f
6:30am  -   -   -  4 7 mph 1015mb 78f 74f
6:20am  -   -   -  2 4 mph 1015.4mb 78f 74f
6:10am  -   -   -  4 7 mph 1015.5mb 78f 74f
6:00am  -   -   -  2 4 mph 1015.5mb 78f 74f
5:50am 4ft 10s 9s 2 4 mph 1015.6mb 78f 74f
5:40am 4ft  -  9s 2 4 mph 1015.9mb 78f 74f
5:30am  -   -   -  2 4 mph 1015.9mb 78f 74f
5:20am  -   -   -  2 4 mph 1016mb 78f 74f
5:10am  -   -   -  2 4 mph 1016mb 78f 74f
5:00am  -   -   -   -  4 mph 1016.1mb 78f 74f
4:50am 3.5ft 9s 8s 2 4 mph 1016.3mb 78f 74f
4:40am 3.5ft  -  8s 2 4 mph 1016.5mb 78f 74f
4:30am  -   -   -   -  2 mph 1016.5mb - 74f
4:20am  -   -   -  2 7 mph 1016.6mb 78f 74f
4:10am  -   -   -  2 4 mph 1016.8mb 78f 74f
4:00am  -   -   -  2 4 mph 1016.8mb 78f 74f
3:50am 4ft 11s 8s 2 4 mph 1016.8mb 78f 74f
3:40am 4ft  -  8s 2 7 mph 1016.8mb 78f 74f
3:30am  -   -   -  2 4 mph 1016.8mb 78f 74f
3:20am  -   -   -  2 7 mph 1016.6mb 78f 74f
3:10am  -   -   -  4 7 mph 1016.6mb 78f 74f
3:00am  -   -   -  2 7 mph 1016.6mb 78f 74f
2:50am 4.5ft 11s 9s 4 7 mph 1016.8mb 78f 74f
2:40am  -   -   -  4 7 mph 1017mb 78f 74f
2:30am  -   -   -  4 7 mph 1016.9mb 78f 75f
2:20am  -   -   -  4 7 mph 1016.9mb 78f 75f
2:10am  -   -   -  4 7 mph 1016.8mb 78f 75f
2:00am  -   -   -  4 7 mph 1016.6mb 78f 74f
1:50am 4.5ft 12s 9s 4 9 mph 1016.6mb 78f 74f
1:40am  -   -   -  4 9 mph 1016.6mb 78f 75f
1:30am  -   -   -  4 7 mph 1016.5mb 78f 75f
1:20am  -   -   -  4 7 mph 1016.5mb 78f 75f
1:10am  -   -   -  4 9 mph 1016.5mb 78f 75f
1:00am  -   -   -  7 9 mph 1016.5mb 78f 75f
12:50am 4ft 11s 8s 4 9 mph 1016.5mb 78f 75f
12:40am  -   -   -  7 9 mph 1016.4mb 78f 75f
12:30am  -   -   -  7 9 mph 1016.3mb 78f 75f
12:20am  -   -   -  7 9 mph 1016.1mb 78f 75f
12:10am  -   -   -  4 9 mph 1016mb 78f 74f
12:00am  -   -   -  4 9 mph 1016mb 78f 75f
Sat 01/21 11:50pm 3.5ft 10s 8s 4 9 mph 1016mb 78f 74f
11:40pm 3.5ft  -  8s 4 9 mph 1015.9mb 78f 74f
11:30pm  -   -   -  7 9 mph 1015.6mb 78f 74f
11:20pm  -   -   -  4 7 mph 1015.8mb 78f 74f
11:10pm  -   -   -  4 7 mph 1015.8mb 78f 74f
11:00pm  -   -   -  4 7 mph 1015.6mb 78f 74f
10:50pm 4.5ft 11s 8s 4 7 mph 1015.6mb 78f 74f
10:40pm 4.5ft  -  8s 4 7 mph 1015.6mb 78f 75f
10:30pm  -   -   -  4 7 mph 1015.5mb 78f 75f
10:20pm  -   -   -  4 7 mph 1015.5mb 78f 75f
10:10pm  -   -   -  4 7 mph 1015.5mb 79f 75f
10:00pm  -   -   -  2 4 mph 1015.5mb 79f 75f
9:50pm 4ft 11s 8s 4 7 mph 1015.5mb 79f 75f
9:40pm  -   -   -  4 7 mph 1015.5mb 79f 75f
9:30pm  -   -   -  2 7 mph 1015.5mb 79f 75f
9:20pm  -   -   -  2 7 mph 1015.6mb 79f 75f
9:10pm  -   -   -  2 7 mph 1015.5mb 79f 76f
9:00pm  -   -   -  2 4 mph 1015.5mb 79f 76f
8:50pm 4ft 11s 8s 2 4 mph 1015.5mb 79f 75f
8:40pm 4ft  -  8s 4 7 mph 1015.5mb 79f 75f
8:30pm  -   -   -  2 7 mph 1015.4mb 79f 75f
8:20pm  -   -   -  4 7 mph 1015.3mb 79f 75f
8:10pm  -   -   -  4 9 mph 1015.3mb 78f 75f
8:00pm  -   -   -  4 7 mph 1015.3mb 78f 75f
7:50pm 4.5ft 11s 8s 4 9 mph 1015.3mb 79f 75f
7:40pm 4.5ft  -  8s 4 7 mph 1015.3mb 79f 75f
7:30pm  -   -   -  4 7 mph 1015.1mb 79f 75f
7:20pm  -   -   -  4 7 mph 1015.4mb 79f 75f
7:10pm  -   -   -  4 7 mph 1015.4mb 79f 75f
7:00pm  -   -   -  4 7 mph 1015.4mb 79f 75f
6:50pm 4.5ft 12s 8s 4 9 mph 1015.4mb 78f 75f
6:40pm 4.5ft  -  8s 4 7 mph 1015.5mb 78f 75f
6:30pm  -   -   -  4 7 mph 1015.5mb 78f 75f
6:20pm  -   -   -  4 7 mph 1015.6mb 78f 75f
6:10pm  -   -   -  2 7 mph 1015.8mb 78f 75f
6:00pm  -   -   -  4 7 mph 1016mb 78f 75f
5:50pm 4.5ft 11s 8s 2 4 mph 1016mb 78f 75f
5:40pm 4.5ft  -  8s 2 4 mph 1016.3mb 78f 75f
5:30pm  -   -   -  2 4 mph 1016.5mb 78f 75f
5:20pm  -   -   -  2 4 mph 1016.6mb 78f 75f
5:10pm  -   -   -  2 4 mph 1016.8mb 78f 75f
5:00pm  -   -   -  2 4 mph 1017mb 78f 75f
4:50pm 4.5ft 13s 8s 2 4 mph 1017.1mb 78f 75f
4:40pm 4.5ft  -  8s  -  4 mph 1017.4mb 78f 75f
4:30pm  -   -   -  2 4 mph 1017.5mb 78f 75f
4:20pm  -   -   -  2 4 mph 1017.6mb 78f 75f
4:10pm  -   -   -  2 4 mph 1017.8mb 78f 75f
4:00pm  -   -   -  4 7 mph 1018mb 78f 74f
3:50pm 5ft 12s 8s 4 7 mph 1018mb 78f 75f
3:40pm 5ft  -  8s 2 7 mph 1018mb 78f 75f
3:30pm  -   -   -  4 7 mph 1018.3mb 78f 75f
3:20pm  -   -   -  4 7 mph 1018.4mb 78f 75f
3:10pm  -   -   -  2 7 mph 1018.4mb 78f 75f
3:00pm  -   -   -  4 7 mph 1018.5mb 78f 75f
2:50pm 5ft 11s 8s 4 7 mph 1018.5mb 78f 75f
2:40pm 5ft  -  8s 4 7 mph 1018.5mb 78f 75f
2:30pm  -   -   -  4 7 mph 1018.5mb 78f 75f
2:20pm  -   -   -  2 4 mph 1018.6mb 78f 75f
2:10pm  -   -   -  4 7 mph 1018.5mb 78f 75f
2:00pm  -   -   -  2 7 mph 1018.5mb 78f 75f
1:50pm 5ft 11s 8s 2 7 mph 1018.4mb 78f 75f
1:40pm  -   -   -  4 7 mph 1018.1mb 78f 75f
1:30pm  -   -   -  2 7 mph 1018mb 78f 75f
1:20pm  -   -   -  4 7 mph 1018mb 78f 75f
1:10pm  -   -   -  4 7 mph 1017.9mb 78f 74f
1:00pm  -   -   -  4 7 mph 1017.6mb 78f 74f
12:50pm 5ft 12s 8s 4
mph
1017.5mb 78f 75f
12:40pm 5ft  -  8s 2 4 mph 1017.5mb 78f 74f
12:30pm  -   -   -  2 4 mph 1017.3mb - 74f
12:20pm  -   -   -  4
mph
1017.1mb 78f 74f
12:10pm  -   -   -  2 7 mph 1017mb 78f 74f
12:00pm  -   -   -  2 4 mph 1017mb 78f 74f
11:50am 4.5ft 9s 8s 2 4 mph 1016.9mb 78f 74f
11:40am 4.5ft  -  8s 2 4 mph 1016.8mb 78f 73f
11:30am  -   -   -  2 4 mph 1016.6mb 78f 74f
11:20am  -   -   -  4 7 mph 1016.5mb 78f 74f
11:10am  -   -   -  2 7 mph 1016.5mb 78f 73f
11:00am  -   -   -  2 4 mph 1016.5mb 78f 74f
10:50am 4.5ft 10s 8s 2 4 mph 1016.5mb 78f 73f
10:40am 4.5ft  -  8s 2 7 mph 1016.5mb 78f 74f
10:30am  -   -   -  2 4 mph 1016.4mb 78f 74f
10:20am  -   -   -  4 7 mph 1016.3mb 78f 74f
10:10am  -   -   -  4 7 mph 1016.4mb 78f 74f
10:00am  -   -   -  4 7 mph 1016.1mb 78f 74f
9:50am 5ft 10s 8s 4 7 mph 1016.1mb 78f 74f
9:40am  -   -   -  4 7 mph 1016mb 78f 73f
9:30am  -   -   -  4 7 mph 1016mb 78f 74f
9:20am  -   -   -  4 9 mph 1016mb 78f 74f
9:10am  -   -   -  4 9 mph 1016mb 78f 74f
9:00am  -   -   -  4 9 mph 1016mb - 74f
8:50am 4.5ft 10s 8s 4 9 mph 1016mb 78f 74f
8:40am 4.5ft  -  8s 7 9 mph 1016mb 78f 74f
8:30am  -   -   -  7 9 mph 1016mb 78f 74f
8:20am  -   -   -  7 9 mph 1016.1mb 78f 74f
8:10am  -   -   -  7 9 mph 1016.1mb 78f 74f
8:00am  -   -   -  7 9 mph 1016.1mb 78f 74f
7:50am 4.5ft 10s 8s 4 9 mph 1016.1mb 78f 74f
7:40am 4.5ft  -  8s 4 9 mph 1016.1mb 78f 74f
7:30am  -   -   -  4 9 mph 1016.3mb 78f 74f
7:20am  -   -   -  4 7 mph 1016.3mb 78f 74f
7:10am  -   -   -  4 7 mph 1016.5mb 78f 74f
7:00am  -   -   -  4 7 mph 1016.5mb 78f 74f
6:50am 5ft 10s 8s 4 7 mph 1016.6mb 78f 74f
6:40am 5ft  -  8s 4 7 mph 1016.8mb 78f 74f
6:30am  -   -   -  2 7 mph 1016.9mb 78f 74f
6:20am  -   -   -  4 7 mph 1017mb 78f 74f
6:10am  -   -   -  4
mph
1017mb 78f 74f
6:00am  -   -   -  4 7 mph 1017mb 78f 74f
5:50am 5ft 11s 8s 2 4 mph 1017.1mb 78f 74f
5:40am 5ft  -  8s 2 4 mph 1017mb - 74f
5:30am  -   -   -  2 4 mph 1017.1mb 78f 74f
5:20am  -   -   -  4 7 mph 1017.3mb 78f 74f
5:10am  -   -   -  2 4 mph 1017.4mb 78f 74f
5:00am  -   -   -  4 7 mph 1017.5mb 78f 74f
4:50am 5ft 10s 8s 4 7 mph 1017.5mb 78f 74f
4:40am  -   -   -  4 7 mph 1017.5mb 78f 74f
4:30am  -   -   -  4 7 mph 1017.5mb 78f 74f
4:20am  -   -   -  4 7 mph 1017.5mb 78f 74f
4:10am  -   -   -  2 4 mph 1017.5mb 78f 74f
4:00am  -   -   -  4 7 mph 1017.6mb 78f 74f
3:50am 4.5ft 10s 8s 2 4 mph 1017.6mb 78f 74f
3:40am 4.5ft  -  8s 4
mph
1017.8mb 78f 74f
3:30am  -   -   -  2 7 mph 1017.8mb 78f 74f
3:20am  -   -   -  2 4 mph 1017.9mb 78f 74f
3:10am  -   -   -  2 4 mph 1017.9mb 78f 74f
3:00am  -   -   -  2 7 mph 1017.9mb 78f 74f
2:50am 5ft 10s 8s 4 7 mph 1017.9mb 78f 74f
2:40am 5ft  -  8s 2 7 mph 1017.9mb 78f 74f
2:30am  -   -   -  2 4 mph 1017.8mb 78f 74f
2:20am  -   -   -  2 4 mph 1017.8mb 78f 74f
2:10am  -   -   -  4 7 mph 1017.8mb 78f 74f
2:00am  -   -   -  4 9 mph 1017.6mb 78f 74f
1:50am 5ft 9s 8s 4 9 mph 1017.5mb - -
1:40am  -   -   -  4 7 mph 1017.5mb 78f 74f
1:30am 5ft  -  8s 4 7 mph 1017.5mb 78f 74f
1:20am  -   -   -  2 7 mph 1017.5mb 78f 74f
1:10am  -   -   -  4
mph
1017.4mb 78f 74f
1:00am  -   -   -  4 7 mph 1017.5mb 78f 74f
12:50am 4.5ft 10s 7s 4 7 mph 1017.4mb 78f 75f
12:40am  -   -   -  4 7 mph 1017.3mb 78f 75f
12:30am  -   -   -  4 7 mph 1017.1mb 78f 75f
12:20am  -   -   -  4 7 mph 1017mb 78f 75f
12:10am  -   -   -  4 7 mph 1017mb 78f 75f
12:00am  -   -   -  2 7 mph 1017mb 78f 75f
Fri 01/20 11:50pm 4.5ft 10s 7s 4 7 mph 1016.8mb 78f 75f
11:40pm 4.5ft  -  7s 4 7 mph 1016.6mb 78f 75f
11:30pm  -   -   -  4 7 mph 1016.5mb 78f 75f
11:20pm  -   -   -  4 7 mph 1016.4mb 78f 75f
11:10pm  -   -   -  4 7 mph 1016.3mb 78f 75f
11:00pm  -   -   -  2 4 mph 1016.1mb 78f 75f
10:50pm 4.5ft 10s 7s 2 4 mph 1016mb 78f 75f
10:40pm 4.5ft  -  7s 2 4 mph 1016mb 78f 75f
10:30pm  -   -   -  2 4 mph 1015.9mb 78f 75f
10:20pm  -   -   -   -  2 mph 1015.6mb 78f 75f
10:10pm  -   -   -  2 4 mph 1015.5mb 78f 75f
10:00pm  -   -   -   -  2 mph 1015.5mb 78f 75f
9:50pm 4.5ft 11s 7s 2 4 mph 1015.4mb 78f 75f
9:40pm  -   -   -  2 4 mph 1015.3mb 78f 75f
9:30pm  -   -   -  2 4 mph 1015.3mb 78f 75f
9:20pm  -   -   -  4
mph
1015.1mb 78f 75f
9:10pm  -   -   -  2 7 mph 1015.3mb 78f 75f
9:00pm  -   -   -  4 7 mph 1015.1mb 78f 75f
8:50pm 4.5ft 9s 7s 2 4 mph 1015.1mb 78f 75f
8:40pm 4.5ft  -  7s 4
mph
1015mb 78f 75f
8:30pm  -   -   -  4 7 mph 1015mb 78f 75f
8:20pm  -   -   -  4 7 mph 1015mb 78f 75f
8:10pm  -   -   -  4 7 mph 1014.9mb 78f 75f
8:00pm  -   -   -  4 9 mph 1014.9mb 78f 75f
7:50pm 4ft 11s 7s 4 7 mph 1014.9mb 78f 75f
7:40pm  -   -   -  4 7 mph 1015mb 78f 75f
7:30pm  -   -   -  4 7 mph 1015.1mb 78f 75f
7:20pm  -   -   -  7 9 mph 1015mb 78f 75f
7:10pm  -   -   -  7 9 mph 1015.1mb 78f 75f
7:00pm  -   -   -  7 9 mph 1015.1mb 78f 75f
6:50pm 4ft 10s 6s 9 11 mph 1015.1mb 78f 75f
6:40pm  -   -   -  9 11 mph 1015.1mb 78f 75f
6:30pm  -   -   -  9 13 mph 1015.3mb - -
6:20pm  -   -   -  9 13 mph 1015.3mb 78f 75f
6:10pm  -   -   -  9 13 mph 1015.4mb 78f 74f
6:00pm  -   -   -  11 13 mph 1015.5mb 78f 74f
5:50pm 3.5ft 10s 6s 11 13 mph 1015.5mb 78f 74f
5:40pm 3.5ft  -  6s 11 16 mph 1015.8mb 78f 75f
5:30pm  -   -   -  11 13 mph 1016mb 78f 75f
5:20pm  -   -   -  11 16 mph 1016.1mb 78f 75f
5:10pm  -   -   -  13 18 mph 1016.3mb 78f 75f
5:00pm  -   -   -  11 18 mph 1016.5mb 78f 76f
4:50pm 4ft 10s 7s 11 13 mph 1016.5mb 78f 76f
4:40pm  -   -   -  9 13 mph 1016.6mb 78f 76f
4:30pm  -   -   -  11 13 mph 1017mb 78f 76f
4:20pm  -   -   -  11 13 mph 1017.1mb 78f 76f
4:10pm  -   -   -  9 13 mph 1017.3mb 78f 76f
4:00pm  -   -   -  9 13 mph 1017.4mb 78f 76f
3:50pm 4ft 9s 6s 9 11 mph 1017.5mb 78f 76f
3:40pm  -   -   -  7 11 mph 1017.5mb 78f 76f
3:30pm  -   -   -  7 11 mph 1017.5mb 78f 76f
3:20pm  -   -   -  7 9 mph 1017.6mb 78f 76f
3:10pm  -   -   -  7 11 mph 1017.6mb 78f 76f
3:00pm  -   -   -  7 11 mph 1017.8mb 78f 76f
2:50pm 3.5ft 9s 6s 7 11 mph 1017.9mb 78f 76f
2:40pm 3.5ft  -  6s 7 9 mph 1017.9mb 78f 76f
2:30pm  -   -   -  7 9 mph 1017.9mb 78f 76f
2:20pm  -   -   -  7 9 mph 1017.9mb 78f 76f
2:10pm  -   -   -  7 9 mph 1017.8mb 78f 76f
2:00pm  -   -   -  7 9 mph 1017.6mb 78f 76f
1:50pm 3.5ft 10s 6s 7 11 mph 1017.5mb 78f 76f
1:40pm 3.5ft  -  6s 7 11 mph 1017.5mb 78f 76f
1:30pm  -   -   -  7 9 mph 1017.4mb 78f 76f
1:20pm  -   -   -  7 11 mph 1017.3mb 78f 76f
1:10pm  -   -   -  7 9 mph 1017mb 78f 76f
1:00pm  -   -   -  7 9 mph 1016.8mb 78f 75f
12:50pm 3.5ft 8s 6s 7 9 mph 1016.6mb 78f 75f
12:40pm  -   -   -  7 9 mph 1016.5mb 78f 75f
12:30pm  -   -   -  7 9 mph 1016.5mb 78f 75f
12:20pm  -   -   -  9 11 mph 1016.3mb 78f 75f
12:10pm  -   -   -  9 11 mph 1016.1mb 78f 74f
12:00pm  -   -   -  9 11 mph 1016mb 78f 74f
11:50am 3.5ft 11s 6s 9 13 mph 1015.9mb 78f 74f
11:40am 3.5ft  -  6s 13 20 mph 1015.8mb 78f 75f
11:30am  -   -   -  9 13 mph 1015.8mb 78f 75f
11:20am  -   -   -  9 11 mph 1015.6mb 78f 75f
11:10am  -   -   -  7 9 mph 1015.5mb 78f 74f
11:00am  -   -   -  7 11 mph 1015.5mb 78f 74f
10:50am 3.5ft 8s 6s 7 11 mph 1015.3mb 78f 74f
10:40am 3.5ft  -  6s 7 11 mph 1015.1mb 78f 75f
10:30am  -   -   -  9 11 mph 1015mb 78f 75f
10:20am  -   -   -  9 11 mph 1014.9mb 78f 75f
10:10am  -   -   -  7 11 mph 1014.8mb 78f 75f
10:00am  -   -   -  7 9 mph 1014.6mb 78f 75f
9:50am 3.5ft 10s 6s 7 11 mph 1014.5mb 78f 75f
9:40am 3.5ft  -  6s 7 11 mph 1014.5mb 78f 75f
9:30am  -   -   -  7 11 mph 1014.5mb 78f 75f
9:20am  -   -   -  9 13 mph 1014.5mb 78f 75f
9:10am  -   -   -  9 13 mph 1014.5mb - 75f
9:00am  -   -   -  9 11 mph 1014.5mb 78f 75f
8:50am 3ft 8s 6s 7 9 mph 1014.4mb 78f 75f
8:40am  -   -   -  4 9 mph 1014.4mb 78f 75f
8:30am  -   -   -  4 7 mph 1014.4mb 78f 75f
8:20am  -   -   -  7 9 mph 1014.5mb 78f 75f
8:10am  -   -   -  7 9 mph 1014.5mb 78f 75f
8:00am  -   -   -  7 9 mph 1014.5mb 78f 75f
7:50am 2.5ft 7s 5s 7 9 mph 1014.5mb 78f 75f
7:40am 2.5ft  -  5s 9 11 mph 1014.5mb 78f 75f
7:30am  -   -   -  9 11 mph 1014.6mb 78f 75f
7:20am  -   -   -  9 11 mph 1014.8mb 78f 75f
7:10am  -   -   -  9 11 mph 1014.8mb 78f 75f
7:00am  -   -   -  9 11 mph 1014.8mb 78f 75f
6:50am 3ft 7s 5s 11 13 mph 1014.9mb 78f 75f
6:40am  -   -   -  9 11 mph 1014.9mb 78f 75f
6:30am  -   -   -  9 13 mph 1015mb 78f 75f
6:20am  -   -   -  9 13 mph 1015.1mb 78f 75f
6:10am  -   -   -  9 13 mph 1015mb 78f 75f
6:00am  -   -   -  9 11 mph 1015.1mb 78f 75f
5:50am 2.5ft 9s 5s 7 11 mph 1015.3mb 78f 75f
5:40am 2.5ft  -  5s 9 11 mph 1015.4mb 78f 75f
5:30am  -   -   -  9 11 mph 1015.5mb 78f 75f
5:20am  -   -   -  9 11 mph 1015.5mb 78f 75f
5:10am  -   -   -  9 11 mph 1015.6mb 78f 75f
5:00am  -   -   -  9 11 mph 1015.6mb 78f 75f
4:50am 2.5ft  -  5s 9 11 mph 1015.9mb 78f 75f
4:40am 2.5ft  -  5s 9 11 mph 1016mb 78f 75f
4:30am  -   -   -  9 11 mph 1016mb 78f 75f
4:20am  -   -   -  9 11 mph 1016.1mb 78f 75f
4:10am  -   -   -  9 16 mph 1016.4mb 78f 75f
4:00am  -   -   -  9 11 mph 1016.5mb 78f 75f
3:50am 3.5ft 8s 6s 9 13 mph 1016.5mb 78f 75f
3:40am 3.5ft  -  6s 9 13 mph 1016.5mb 78f 75f
3:30am  -   -   -  9 13 mph 1016.5mb 78f 75f
3:20am  -   -   -  9 11 mph 1016.6mb 78f 75f
3:10am  -   -   -  9 11 mph 1016.8mb 78f 76f
3:00am  -   -   -  9 11 mph 1016.8mb 78f 75f
2:50am 3.5ft 8s 6s 9 11 mph 1016.9mb 78f 76f
2:40am 3.5ft  -  6s 9 13 mph 1016.9mb 78f 76f
2:30am  -   -   -  9 13 mph 1016.9mb 78f 76f
2:20am  -   -   -  9 13 mph 1016.8mb 78f 76f
2:10am  -   -   -  11 13 mph 1016.8mb 78f 76f
2:00am  -   -   -  11 13 mph 1016.8mb 78f 76f
1:50am 3.5ft 8s 5s 9 13 mph 1016.6mb 78f 76f
1:40am  -   -   -  9 13 mph 1016.6mb 78f 76f
1:30am  -   -   -  9 13 mph 1016.6mb 78f 76f
1:20am  -   -   -  9 13 mph 1016.5mb 78f 76f
1:10am  -   -   -  9 13 mph 1016.5mb 78f 76f
1:00am  -   -   -  9 13 mph 1016.5mb 78f 76f
12:50am 3.5ft 8s 5s 11 13 mph 1016.6mb 78f 76f
12:40am  -   -   -  11 13 mph 1016.6mb 78f 76f
12:30am  -   -   -  11 16 mph 1016.6mb 78f 76f
12:20am  -   -   -  11 16 mph 1016.6mb 78f 76f
12:10am  -   -   -  11 16 mph 1016.5mb 78f 76f
12:00am  -   -   -  11 16 mph 1016.5mb 78f 76f
Thu 01/19 11:50pm 3.5ft 8s 6s 11 16 mph 1016.4mb 78f 76f
11:40pm 3.5ft  -  6s 11 16 mph 1016.3mb 78f 76f
11:30pm  -   -   -  11 16 mph 1016mb 78f 76f
11:20pm  -   -   -  13 18 mph 1016mb 78f 76f
11:10pm  -   -   -  13 18 mph 1015.9mb 78f 76f
11:00pm  -   -   -  13 18 mph 1015.6mb - 76f
10:50pm 3.5ft 7s 6s 13 16 mph 1015.6mb 78f 76f
10:40pm  -   -   -  11 16 mph 1015.6mb 78f 76f
10:30pm  -   -   -  9 13 mph 1015.6mb 78f 76f
10:20pm  -   -   -  11 13 mph 1015.5mb 78f 76f
10:10pm  -   -   -  11 18 mph 1015.5mb 78f 76f
10:00pm  -   -   -  11 13 mph 1015.3mb 78f 76f
9:50pm 3.5ft 8s 6s 11 13 mph 1015.3mb 78f 76f
9:40pm  -   -   -  9 13 mph 1015.1mb 78f 76f
9:30pm  -   -   -  9 13 mph 1015.1mb 78f 76f
9:20pm  -   -   -  11 13 mph 1015.1mb 78f 76f
9:10pm  -   -   -  11 16 mph 1015mb 78f 76f
9:00pm  -   -   -  11 16 mph 1015mb 78f 76f
8:50pm 3.5ft 8s 6s 11 16 mph 1015mb 78f 76f
8:40pm  -   -   -  11 16 mph 1015mb 78f 76f
8:30pm  -   -   -  11 16 mph 1015mb 78f 76f
8:20pm  -   -   -  11 13 mph 1014.9mb 78f 76f
8:10pm  -   -   -  11 16 mph 1014.9mb 78f 76f
8:00pm  -   -   -  11 16 mph 1014.9mb 78f 76f
7:50pm 3.5ft 8s 7s 9 13 mph 1014.9mb 78f 76f
7:40pm 3.5ft  -  7s 11 13 mph 1014.9mb 78f 76f
7:30pm  -   -   -  9 13 mph 1015mb 78f 76f
7:20pm  -   -   -  9 13 mph 1015mb 78f 76f
7:10pm  -   -   -  9 11 mph 1015mb 78f 76f
7:00pm  -   -   -  9 11 mph 1015mb 78f 76f
6:50pm 3.5ft 9s 7s 9 11 mph 1015mb 78f 76f
6:40pm  -   -   -  7 11 mph 1015mb 78f 76f
6:30pm  -   -   -  7 11 mph 1015.1mb 78f 76f
6:20pm  -   -   -  7 11 mph 1015.1mb 78f 76f
6:10pm  -   -   -  7 9 mph 1015.3mb 78f 76f
6:00pm  -   -   -  7 11 mph 1015.4mb 78f 75f
5:50pm 3.5ft 7s 7s 4 9 mph 1015.5mb 78f 75f
5:40pm  -   -   -  7 9 mph 1015.6mb 78f 75f
5:30pm  -   -   -  7 11 mph 1015.8mb 78f 75f
5:20pm  -   -   -  7 9 mph 1015.9mb 78f 75f
5:10pm  -   -   -  7 9 mph 1016mb 78f 75f
5:00pm  -   -   -  4 7 mph 1016.1mb 78f 75f
4:50pm 3.5ft 8s 7s 7 9 mph 1016.5mb 78f 75f
4:40pm  -   -   -  7 9 mph 1016.6mb 78f 75f
4:30pm  -   -   -  9 11 mph 1016.9mb 78f 75f
4:20pm  -   -   -  9 13 mph 1017mb 78f 75f
4:10pm  -   -   -  9 11 mph 1017.3mb 78f 75f
4:00pm  -   -   -  9 11 mph 1017.5mb 78f 75f
3:50pm 3.5ft 8s 7s 7 11 mph 1017.6mb 78f 75f
3:40pm 3.5ft  -  7s 7 9 mph 1017.9mb 78f 75f
3:30pm  -   -   -  7 9 mph 1018mb 78f 75f
3:20pm  -   -   -  7 11 mph 1018.4mb 78f 75f
3:10pm  -   -   -  7 11 mph 1018.5mb 78f 75f
3:00pm  -   -   -  7 9 mph 1018.5mb 78f 75f
2:50pm 4ft 8s 7s 7 13 mph 1018.5mb 78f 75f
2:40pm 4ft  -  7s 7 9 mph 1018.5mb 78f 75f
2:30pm  -   -   -  9 11 mph 1018.6mb 78f 75f
2:20pm  -   -   -  7 9 mph 1018.6mb 78f 75f
2:10pm  -   -   -  7 9 mph 1018.5mb 78f 75f
2:00pm  -   -   -  7 9 mph 1018.5mb 78f 75f
1:50pm 4ft 8s 7s 7 9 mph 1018.5mb 78f 75f
1:40pm  -   -   -  7 11 mph 1018.4mb 78f 75f
1:30pm  -   -   -  4 9 mph 1018.4mb 78f 75f
1:20pm  -   -   -  7 9 mph 1018.4mb 78f 75f
1:10pm  -   -   -  7 9 mph 1018.3mb - 75f
1:00pm  -   -   -  9 11 mph 1018.1mb 78f 74f
12:50pm 3.5ft 8s 7s 9 11 mph 1018mb 78f 74f
12:40pm 3.5ft  -  7s 7 11 mph 1017.9mb 78f 74f
12:30pm  -   -   -  7 11 mph 1017.8mb 78f 74f
12:20pm  -   -   -  9 11 mph 1017.9mb 78f 74f
12:10pm  -   -   -  7 11 mph 1017.6mb 78f 74f
12:00pm  -   -   -  7 11 mph 1017.5mb 78f 74f
11:50am 4.5ft 7s 7s 4 9 mph 1017.4mb 78f 74f
11:40am 4.5ft  -  7s 2 7 mph 1017.1mb 78f 74f
11:30am  -   -   -  2 4 mph 1017.1mb 78f 74f
11:20am  -   -   -  2 7 mph 1017mb 78f 74f
11:10am  -   -   -  2 4 mph 1017mb 78f 74f
11:00am  -   -   -   -  4 mph 1016.8mb 78f 74f
10:50am 4ft 8s 7s  -  2 mph 1016.9mb 78f 74f
10:40am 4ft  -  7s  -  2 mph 1016.9mb 78f 74f
10:30am  -   -   -  2 7 mph 1016.9mb 78f 74f
10:20am  -   -   -  4 7 mph 1016.9mb 78f 74f
10:10am  -   -   -  4 7 mph 1016.8mb 78f 74f
10:00am  -   -   -  4 7 mph 1016.8mb 78f 74f
9:50am 4.5ft 9s 7s 4 9 mph 1016.6mb 78f 74f
9:40am 4.5ft  -  7s 4 9 mph 1016.8mb 78f 74f
9:30am  -   -   -  4 7 mph 1016.8mb 78f 74f
9:20am  -   -   -  2 7 mph 1016.5mb 78f 74f
9:10am  -   -   -  4 7 mph 1016.5mb 78f 74f
9:00am  -   -   -  4 7 mph 1016.6mb 78f 74f
8:50am 4ft 8s 6s 2 4 mph 1016.5mb 78f 74f
8:40am 4ft  -  6s 4
mph
1016.5mb 78f 74f
8:30am  -   -   -  2 4 mph 1016.5mb 78f 74f
8:20am  -   -   -  2 4 mph 1016.5mb 78f 74f
8:10am  -   -   -  2 4 mph 1016.5mb 78f 74f
8:00am  -   -   -  2 4 mph 1016.5mb 78f 74f
7:50am 3.5ft 8s 6s 2 4 mph 1016.5mb 78f 74f
7:40am 3.5ft  -  6s 2 4 mph 1016.5mb 78f 74f
7:30am  -   -   -  4 7 mph 1016.8mb 78f 74f
7:20am  -   -   -  2 4 mph 1016.8mb 78f 74f
7:10am  -   -   -  2 4 mph 1017mb 78f 74f
7:00am  -   -   -  2 7 mph 1017mb 78f 74f
6:50am 4ft 8s 6s 4 7 mph 1017.1mb 78f 74f
6:40am  -   -   -  4 7 mph 1017.3mb 78f 74f
6:30am  -   -   -  7 9 mph 1017.5mb 78f 74f
6:20am  -   -   -  7 9 mph 1017.5mb 78f 74f
6:10am  -   -   -  4 9 mph 1017.8mb 78f 74f
6:00am  -   -   -  7 9 mph 1017.9mb 78f 74f
5:50am 4.5ft 9s 7s 4 9 mph 1017.8mb 78f 75f
5:40am 4.5ft  -  7s 7 9 mph 1017.9mb 78f 74f
5:30am  -   -   -  4 7 mph 1018mb 78f 74f
5:20am  -   -   -  7 9 mph 1018.1mb 78f 75f
5:10am  -   -   -  7 11 mph 1018.4mb 78f 75f
5:00am  -   -   -  7 11 mph 1018.5mb 78f 75f
4:50am 4.5ft 8s 7s 9 11 mph 1018.6mb 78f 75f
4:40am  -   -   -  9 11 mph 1018.8mb 78f 75f
4:30am  -   -   -  9 11 mph 1018.9mb 78f 74f
4:20am  -   -   -  9 11 mph 1019mb 78f 75f
4:10am  -   -   -  9 11 mph 1019mb 78f 75f
4:00am  -   -   -  7 9 mph 1018.9mb 78f 75f
3:50am 4ft 8s 6s 7 9 mph 1019mb 78f 75f
3:40am  -   -   -  7 9 mph 1019mb 78f 75f
3:30am  -   -   -  7 11 mph 1019.1mb 78f 75f
3:20am  -   -   -  7 11 mph 1019.3mb 78f 75f
3:10am  -   -   -  7 11 mph 1019.4mb 78f 75f
3:00am  -   -   -  7 11 mph 1019.5mb 78f 75f
2:50am 4ft 9s 6s 7 9 mph 1019.5mb 78f 75f
2:40am  -   -   -  7 9 mph 1019.5mb 78f 75f
2:30am  -   -   -  7 9 mph 1019.6mb 78f 75f
2:20am  -   -   -  7 11 mph 1019.8mb 78f 75f
2:10am  -   -   -  7 9 mph 1019.8mb 78f 75f
2:00am  -   -   -  7 9 mph 1020mb 78f 75f
1:50am 4ft 8s 6s 4 9 mph 1020mb 78f 75f
1:40am  -   -   -  4 7 mph 1020mb 78f 75f
1:30am  -   -   -  7 9 mph 1020.6mb 78f 75f
1:20am  -   -   -  4 7 mph 1020.5mb - 75f
1:10am  -   -   -  4 7 mph 1019.8mb 78f 75f
1:00am  -   -   -  7 9 mph 1020mb 78f 75f
12:50am 4.5ft 8s 6s 7 9 mph 1020mb 78f 75f
12:40am 4.5ft  -  6s 7 9 mph 1019.9mb 78f 75f
12:30am  -   -   -  7 9 mph 1019.8mb 78f 75f
12:20am  -   -   -  4 9 mph 1019.8mb 78f 75f
12:10am  -   -   -  2 7 mph 1019.5mb 78f 75f
12:00am  -   -   -  4 7 mph 1019.5mb 78f 75f
Wed 01/18 11:50pm 4.5ft 8s 6s 4 7 mph 1019.5mb 78f 75f
11:40pm 4.5ft  -  6s 4 9 mph 1019.3mb 78f 75f
11:30pm  -   -   -  4 9 mph 1019.3mb 78f 75f
11:20pm  -   -   -  4 7 mph 1019.1mb - 75f
11:10pm  -   -   -  4 7 mph 1019mb 78f 75f
11:00pm  -   -   -  4 7 mph 1019mb - -
10:50pm 4.5ft 7s 6s 4 7 mph 1018.9mb 78f 75f
10:40pm 4.5ft  -  6s 4 7 mph 1018.9mb 78f 75f
10:30pm  -   -   -  4 7 mph 1018.9mb 78f 75f
10:20pm  -   -   -  2 7 mph 1018.8mb 78f 75f
10:10pm  -   -   -  4 7 mph 1018.6mb 78f 75f
10:00pm  -   -   -  4 7 mph 1018.5mb - -
9:50pm 4.5ft 8s 6s 4 7 mph 1018.6mb 78f 76f
9:40pm 4.5ft  -  6s 4 9 mph 1018.8mb 78f 76f
9:30pm  -   -   -  4 9 mph 1018.5mb 78f 76f
9:20pm  -   -   -  4 7 mph 1018.5mb 78f 76f
9:10pm  -   -   -  4 7 mph 1018.5mb 78f 76f
9:00pm  -   -   -  4 9 mph 1018.4mb 78f 76f
8:50pm 4.5ft 7s 6s 4 9 mph 1018.5mb 78f 76f
8:40pm  -   -   -  7 9 mph 1018.5mb 78f 76f
8:30pm  -   -   -  7 9 mph 1018.4mb 78f 76f
8:20pm  -   -   -  4 9 mph 1018.3mb 78f 76f
8:10pm  -   -   -  7 9 mph 1018.4mb 78f 76f
8:00pm  -   -   -  7 9 mph 1018.4mb 78f 76f
7:50pm 5ft 8s 6s 7 11 mph 1018.4mb 78f 76f
7:40pm 5ft  -  6s 7 9 mph 1018.4mb 78f 76f
7:30pm  -   -   -  7 9 mph 1018.5mb - 76f
7:20pm  -   -   -  7 9 mph 1018.5mb 78f 76f
7:10pm  -   -   -  9 11 mph 1018.4mb 78f 76f
7:00pm  -   -   -  9 11 mph 1018.4mb 78f 76f
6:50pm 5ft 8s 6s 7 9 mph 1018.5mb 78f 76f
6:40pm  -   -   -  7 11 mph 1018.6mb 78f 75f
6:30pm  -   -   -  9 11 mph 1018.8mb 78f 76f
6:20pm  -   -   -  9 13 mph 1018.9mb 78f 75f
6:10pm  -   -   -  11 13 mph 1018.9mb 78f 75f
6:00pm  -   -   -  9 13 mph 1018.9mb 78f 75f
5:50pm 5ft 8s 6s 9 13 mph 1019mb 78f 75f
5:40pm 5ft  -  6s 11 13 mph 1019mb 78f 75f
5:30pm  -   -   -  11 16 mph 1019mb 78f 75f
5:20pm  -   -   -  11 16 mph 1019.1mb 78f 75f
5:10pm  -   -   -  11 16 mph 1019.4mb 78f 75f